Home   Weather   Montpellier   Past weeks

Flag for France Past Weather in Montpellier, Languedoc-Roussillon, France — Yesterday and Last 2 Weeks

Now
66 °F

Passing clouds.


Feels Like: 66 °F
Forecast: 51 / 78 °F
Wind: 6 mph from East

Location: Montpellier Airport

Current Time: Sep 27, 2016 at 9:10:37 PM

Latest Report: Sep 27, 2016 at 8:30 PM


Visibility: N/A

Pressure: 30.27 "Hg

Humidity: 68%

Dew Point: 55 °F

Location of MontpellierLocation

Past Weather in Montpellier — Graph

°F

Montpellier Temperature Yesterday

Maximum temperature yesterday: 79 °F (at 2:30 PM)
Minimum temperature yesterday: 57 °F (at 6:00 AM)
Average temperature yesterday: 68 °F

High & Low Weather Summary for the Past Weeks

 TemperatureHumidityPressure
High81 °F (Sep 13, 11:30 AM)94% (Sep 12, 10:34 PM)30.27 "Hg (Sep 12, 10:34 PM)
Low52 °F (Sep 21, 7:00 AM)29% (Sep 17, 1:30 PM)29.77 "Hg (Sep 14, 3:00 PM)
Average68 °F65%30.03 "Hg
* Reported Sep 12 8:00 PM — Sep 27 8:00 PM, Montpellier, Weather by CustomWeather, © 2016

Note: Actual official high and low records may vary slightly from our data, if they occured in-between our weather recording intervals... More about our weather records

Advertising

Montpellier Weather History for the Previous 24 Hours

Scroll right to see more
 ConditionsComfort  
Time TempWeatherWind HumidityBarometerVisibility
8:00 PM
Tue, Sep 27
70 °FClear.2 mph60%30.24 "Hg10 mi
7:30 PM70 °FSunny.3 mph64%30.24 "Hg10 mi
7:00 PM73 °FSunny.5 mph50%30.21 "Hg10 mi
6:30 PM75 °FSunny.5 mph41%30.21 "Hg10 mi
6:00 PM73 °FSunny.7 mph44%30.18 "Hg10 mi
5:30 PM75 °FSunny.8 mph44%30.18 "Hg10 mi
5:00 PM75 °FPassing clouds.6 mph44%30.18 "HgN/A
4:30 PM75 °FSunny.9 mph44%30.18 "Hg10 mi
4:00 PM77 °FPassing clouds.6 mph42%30.18 "HgN/A
3:30 PM77 °FPassing clouds.9 mph39%30.21 "HgN/A
3:00 PM77 °FPassing clouds.5 mph39%30.21 "HgN/A
2:30 PM79 °FPassing clouds.6 mph30%30.21 "HgN/A
2:00 PM77 °FPassing clouds.7 mph32%30.21 "HgN/A
1:30 PM77 °FPassing clouds.7 mph34%30.24 "HgN/A
1:04 PM75 °FPassing clouds.5 mph36%30.24 "HgN/A
12:30 PM73 °FSunny.6 mph44%30.24 "Hg10 mi
12:00 PM72 °FPassing clouds.6 mph53%30.24 "HgN/A
11:30 AM72 °FPassing clouds.3 mph53%30.24 "HgN/A
11:00 AM72 °FSunny.5 mph57%30.24 "Hg10 mi
10:30 AM68 °FSunny.5 mph53%30.24 "Hg10 mi
10:00 AM64 °FPassing clouds.5 mph64%30.24 "HgN/A
9:30 AM61 °FSunny.3 mph72%30.24 "Hg10 mi
9:00 AM59 °FSunny.6 mph72%30.24 "Hg10 mi
8:30 AM59 °FSunny.3 mph72%30.21 "Hg10 mi
8:00 AM57 °FSunny.3 mph82%30.21 "Hg10 mi
7:30 AM57 °FClear.5 mph82%30.18 "Hg10 mi
7:00 AM57 °FClear.3 mph82%30.18 "Hg10 mi
6:30 AM59 °FPassing clouds.3 mph77%30.18 "HgN/A
6:00 AM57 °FPassing clouds.No wind82%30.18 "HgN/A
5:30 AM59 °FPassing clouds.3 mph77%30.18 "HgN/A
5:00 AM61 °FPartly cloudy.3 mph77%30.18 "HgN/A
4:00 AM63 °FClear.5 mph73%30.18 "Hg10 mi
3:30 AM64 °FClear.5 mph68%30.18 "Hg10 mi
3:00 AM63 °FClear.6 mph73%30.18 "Hg10 mi
2:30 AM63 °FClear.3 mph73%30.18 "Hg10 mi
2:00 AM64 °FClear.5 mph68%30.18 "Hg10 mi
1:30 AM64 °FClear.7 mph68%30.15 "Hg10 mi
1:00 AM64 °FClear.7 mph73%30.18 "Hg10 mi
12:30 AM63 °FClear.9 mph73%30.15 "Hg10 mi
12:00 AM63 °FClear.7 mph73%30.15 "Hg10 mi
11:30 PM
Mon, Sep 26
64 °FClear.6 mph73%30.15 "Hg10 mi
11:00 PM64 °FClear.6 mph73%30.15 "Hg10 mi
10:30 PM66 °FClear.7 mph68%30.15 "Hg10 mi
10:00 PM68 °FClear.8 mph64%30.15 "Hg10 mi
9:30 PM68 °FPassing clouds.6 mph69%30.15 "HgN/A
9:00 PM68 °FClear.3 mph73%30.12 "Hg10 mi
Weather by CustomWeather, © 2016

See weather overviewHow to use our weather pages